CW9683 Weather Reports


Display with metric or nautical units.
time (UTC)temp
F
wind
direction
speed
MPH
gust
MPH
rain 1hr
in
rain 24hr
in
rain mn
in
humidity
%
barometer
mb
20260505034804 58 164 4.0 8.0 0.00 0.00 0.00 59 1007.2
20260505033304 59 198 3.0 7.0 0.00 0.00 0.00 58 1007.1
20260505030805 59 154 3.0 9.0 0.00 0.00 0.00 57 1007.1
20260505030304 59 210 3.0 9.0 0.00 0.00 0.00 55 1007.1
20260505025804 59 167 4.0 8.0 0.00 0.00 0.00 55 1007.1
20260505025305 59 146 3.0 10.0 0.00 0.00 0.00 54 1007.1
20260505024804 60 179 5.0 20.0 0.00 0.00 0.00 54 1007.1
20260505023304 60 159 5.0 10.0 0.00 0.00 0.00 52 1007.1
20260505022804 60 186 3.0 15.0 0.00 0.00 0.00 52 1007.1
20260505022304 60 153 4.0 15.0 0.00 0.00 0.00 52 1007.2
20260505021803 60 173 5.0 12.0 0.00 0.00 0.00 52 1007.2
20260505021305 60 161 5.0 12.0 0.00 0.00 0.00 51 1007.2
20260505015803 61 194 4.0 10.0 0.00 0.00 0.00 50 1007.0
20260505015304 61 169 4.0 12.0 0.00 0.00 0.00 49 1006.9
20260505014804 62 175 3.0 14.0 0.00 0.00 0.00 49 1007.0
20260505014304 62 180 6.0 12.0 0.00 0.00 0.00 49 1007.0
20260505013804 62 202 7.0 18.0 0.00 0.00 0.00 49 1006.9
20260505013304 62 182 5.0 14.0 0.00 0.00 0.00 49 1006.8
20260505012305 62 155 4.0 14.0 0.00 0.00 0.00 49 1006.8
20260505011304 63 173 4.0 9.0 0.00 0.00 0.00 48 1006.5
20260505010305 63 149 4.0 8.0 0.00 0.00 0.00 47 1006.3
20260505005304 63 167 3.0 12.0 0.00 0.00 0.00 47 1006.1
20260505004804 64 155 5.0 12.0 0.00 0.00 0.00 47 1006.0
20260505004304 64 178 3.0 15.0 0.00 0.00 0.00 46 1005.9
20260505002304 64 146 3.0 8.0 0.00 0.00 0.00 45 1005.3
20260505001804 65 231 3.0 15.0 0.00 0.00 0.00 45 1005.2
20260505000304 65 161 3.0 14.0 0.00 0.00 0.00 45 1004.9
20260504234804 66 175 9.0 18.0 0.00 0.00 0.00 43 1004.5
20260504234304 67 188 6.0 14.0 0.00 0.00 0.00 42 1004.4
20260504233804 67 153 3.0 12.0 0.00 0.00 0.00 41 1004.3
20260504231804 68 185 5.0 18.0 0.00 0.00 0.00 39 1004.0
20260504231304 68 176 10.0 23.0 0.00 0.00 0.00 38 1003.9
20260504230304 69 163 5.0 10.0 0.00 0.00 0.00 37 1003.6
20260504225304 70 154 5.0 12.0 0.00 0.00 0.00 34 1003.3
20260504224804 71 170 2.0 9.0 0.00 0.00 0.00 33 1003.3
20260504224303 71 147 2.0 7.0 0.00 0.00 0.00 34 1003.2
20260504220804 72 170 2.0 6.0 0.00 0.00 0.00 32 1003.1
20260504215305 72 299 4.0 9.0 0.00 0.00 0.00 34 1003.1
20260504213804 72 126 3.0 8.0 0.00 0.00 0.00 32 1003.1
20260504213304 72 237 2.0 7.0 0.00 0.00 0.00 31 1003.1
20260504212803 73 209 2.0 9.0 0.00 0.00 0.00 32 1003.1
20260504211804 73 188 5.0 14.0 0.00 0.00 0.00 32 1003.2
20260504211304 74 192 4.0 9.0 0.00 0.00 0.00 30 1003.2
20260504210804 74 150 3.0 9.0 0.00 0.00 0.00 31 1003.2
20260504210304 74 266 3.0 7.0 0.00 0.00 0.00 31 1003.2
20260504205804 74 222 2.0 9.0 0.00 0.00 0.00 30 1003.2
20260504204804 74 249 5.0 15.0 0.00 0.00 0.00 30 1003.3
20260504204304 74 254 2.0 6.0 0.00 0.00 0.00 31 1003.2
20260504203804 74 205 4.0 10.0 0.00 0.00 0.00 30 1003.2
20260504203303 74 207 5.0 12.0 0.00 0.00 0.00 32 1003.2
20260504202305 74 194 3.0 10.0 0.00 0.00 0.00 29 1003.3
20260504201804 75 170 5.0 12.0 0.00 0.00 0.00 28 1003.3
20260504201304 75 210 3.0 12.0 0.00 0.00 0.00 30 1003.3
20260504200804 75 191 6.0 16.0 0.00 0.00 0.00 30 1003.3
20260504195804 74 131 3.0 7.0 0.00 0.00 0.00 30 1003.4
20260504192804 74 247 5.0 17.0 0.00 0.00 0.00 29 1003.4
20260504192304 74 192 8.0 18.0 0.00 0.00 0.00 29 1003.4
20260504190804 75 175 3.0 17.0 0.00 0.00 0.00 29 1003.6
20260504185305 75 184 3.0 12.0 0.00 0.00 0.00 33 1003.8
20260504183304 74 179 5.0 15.0 0.00 0.00 0.00 30 1003.8
20260504182304 75 233 5.0 13.0 0.00 0.00 0.00 28 1003.8
20260504181804 74 176 3.0 7.0 0.00 0.00 0.00 30 1003.9
20260504180806 74 218 5.0 16.0 0.00 0.00 0.00 30 1004.1
20260504180306 74 192 5.0 12.0 0.00 0.00 0.00 32 1003.9
20260504175806 74 129 4.0 10.0 0.00 0.00 0.00 32 1004.1
20260504175306 73 229 3.0 12.0 0.00 0.00 0.00 33 1004.3
20260504172305 73 203 3.0 13.0 0.00 0.00 0.00 32 1004.5
20260504171806 72 199 3.0 12.0 0.00 0.00 0.00 35 1004.4
20260504170805 71 202 5.0 12.0 0.00 0.00 0.00 33 1004.4
20260504170305 72 305 11.0 28.0 0.00 0.00 0.00 35 1004.5
20260504140805 65 137 2.0 6.0 0.00 0.00 0.00 40 1006.2
20260504110306 48 158 2.0 3.0 0.00 0.00 0.00 60 1007.5
20260504100306 48 134 1.0 2.0 0.00 0.00 0.00 60 1007.6
20260504081806 46 158 1.0 2.0 0.00 0.00 0.00 63 1007.3
20260504050306 36 159 0.0 0.0 0.00 0.00 0.00 80 1007.3
20260504045305 36 159 0.0 0.0 0.00 0.00 0.00 80 1007.3
20260504044805 36 159 0.0 0.0 0.00 0.00 0.00 79 1007.2
20260504043805 36 159 0.0 0.0 0.00 0.00 0.00 79 1007.3
20260504043306 36 159 0.0 0.0 0.00 0.00 0.00 78 1007.3
20260504042805 37 159 0.0 0.0 0.00 0.00 0.00 77 1007.2
20260504041806 37 159 0.0 0.0 0.00 0.00 0.00 77 1007.3
20260504041305 37 159 0.0 0.0 0.00 0.00 0.00 77 1007.1
20260504040844 37 159 0.0 0.0 0.00 0.00 0.00 76 1007.1
20260504035805 38 159 0.0 0.0 0.00 0.00 0.00 75 1007.0